Location: Hackbridge
(51.3833°N, 0.1500°W)
Time: 10:41:04
(UTC+00:00)

FengYun 1-2 T - Pass Details

Date: 13 October 2019
Orbit: 846 x 882 km, 98.7° (Epoch: 21 November)

Event Time Altitude Azimuth Distance (km) Brightness Sun altitude
Rises 18:06:05 0° 164° (SSE) 3,470 7.2 -9.1°
Reaches altitude 10° 18:08:28 10° 165° (SSE) 2,533 6.5 -9.5°
Maximum altitude 18:14:08 84° 255° (WSW) 889 4.4 -10.4°
Drops below altitude 10° 18:19:47 10° 344° (NNW) 2,533 6.9 -11.3°
Sets 18:22:11 0° 345° (NNW) 3,471 7.6 -11.6°
